User: anonymous   Login
Location: ???????
(54.9996°N, 37.9529°E)
Time: 21:36:41
(UTC+00:00)
Language:

Lacrosse 4 Rocket - Orbit

View from above orbital plane
View from above orbital plane
View from above satellite
View from above satellite

Ground track
Ground track

The orbit data is extracted from the following two-line orbital elements,

1 26474U 00047B   24165.60573201  .00003623  00000-0  27831-3 0  9994
2 26474  67.9939  14.3162 0045632  26.3825 333.9629 15.02136559297427
Epoch (UTC): 13 June 2024 14:32:15
Eccentricity: 0.0045632
inclination: 67.9939°
perigee height: 528 km
apogee height: 592 km
right ascension of ascending node: 14.3162°
argument of perigee: 26.3825°
revolutions per day: 15.02136559
mean anomaly at epoch: 333.9629°
orbit number at epoch: 29742

The dashed part of the orbit path shows where the satellite is in the earth's shadow,  

DLR